Location: Fisheating Creek Campgrounds
(26.9333°N, 81.3167°W)
Time: 00:29:25
(UTC-05:00)

Cosmos 2221 Rocket - Visible Passes

Search period start: 31 January 2015 00:00
Search period end: 10 February 2015 00:00
Orbit: 621 x 650 km, 82.5° (Epoch: 29 January)

Date Brightness Start Highest point End Pass type
(mag) Time Alt. Az. Time Alt. Az. Time Alt. Az.
31 Jan 5.6 04:54:48 10° SSE 04:58:37 28° E 05:02:29 10° NNE visible
31 Jan 5.1 06:33:50 10° WSW 06:36:52 17° WNW 06:39:42 10° NW visible
01 Feb 3.9 05:16:31 10° S 05:21:00 68° E 05:25:30 10° NNE visible
02 Feb 3.7 05:39:06 10° SSW 05:43:30 49° W 05:47:52 10° N visible
03 Feb 6.5 04:31:26 10° NE 04:31:26 10° NE 04:31:31 10° NE visible
03 Feb 5.7 06:09:07 11° NNW 06:09:07 11° NNW 06:09:28 10° NNW visible
